Regional Weather Roundup
Issued by NWS Midland/Odessa, TX

Skip options and go directly to product.
Home | Oldest Version | Next Version | Current Version | All | Text Only | Save Text | Print | Product List | Glossary On

Skip product version selection by date and time.   
853
ASUS44 KMAF 240602
RWRMAF
MIDLAND AREA WEATHER ROUNDUP
NATIONAL WEATHER SERVICE MIDLAND TX
100 AM CDT FRI OCT 24 2014

...IN SOUTHWEST TEXAS AND SOUTHEAST NEW MEXICO...

CITY           SKY/WX    TMP DP  RH WIND       PRES   REMARKS
ALPINE         CLEAR     56  54  91 W8        30.28F
ANDREWS        FAIR      61  58  87 SW8       30.16S
ARTESIA        NOT AVBL
BIG SPRING     CLEAR     64  60  88 S8        30.16S
CARLSBAD       CLEAR     59  55  87 SW6       30.13S
DRYDEN           N/A     65  63  93 N8        30.13S
FORT STOCKTON  CLEAR     63  59  87 S8        30.15S
GUAD PASS      NOT AVBL
HOBBS          CLEAR     57  54  88 S7        30.18S
MARFA          CLEAR     54  52  94 CALM      30.27S
MIDLAND AIRPK  CLEAR     65  59  81 S7        30.15S
MIDLAND INTL   CLEAR     64  58  80 S7        30.14S
ODESSA         CLEAR     63  58  83 S9        30.15S
PECOS          CLEAR     60  57  89 CALM      30.12S
PRESIDIO       FAIR      70  58  65 N7        30.14S
SEMINOLE       CLEAR     59  56  88 S7        30.17S
SNYDER         CLEAR     62  60  93 S6        30.14S
WINK           CLEAR     63  32  31 SE7       30.13R
$$
...OTHER STATIONS IN TEXAS...

CITY           SKY/WX    TMP DP  RH WIND       PRES   REMARKS
ABILENE        CLEAR     64  59  83 SE7       30.12S
AMARILLO       CLEAR     59  56  89 S8        30.13F
AUSTIN         CLEAR     60  56  86 CALM      30.11S
BROWNSVILLE    CLEAR     69  66  90 CALM      30.08S
CORPUS CHRISTI PTCLDY    67  64  90 CALM      30.08S
DALLAS FTW     CLEAR     64  55  72 SE5       30.11S
DEL RIO        CLEAR     67  62  84 E7        30.10S
EL PASO        CLEAR     66  52  60 N3        30.17S
HOUSTON INT    CLEAR     58  55  90 CALM      30.11S
LUBBOCK        CLEAR     60  58  92 S6        30.14R
SAN ANGELO     CLEAR     58  56  93 SW3       30.13S
SAN ANTONIO    CLEAR     68  58  70 NE3       30.12S
WACO           CLEAR     65  56  72 S9        30.12R
WICHITA FALLS  NOT AVBL
$$
...OTHER LOCATIONS IN NEW MEXICO...

CITY           SKY/WX    TMP DP  RH WIND       PRES   REMARKS
ALAMAGORDO     NOT AVBL
ALBUQUERQUE    CLEAR     58  37  45 E3        30.27S
CANNON AFB     CLEAR     61  52  71 W9        30.17S
CLOVIS         CLEAR     54  45  71 W7        30.19S
HOLLOMAN AFB   CLEAR     57  48  71 CALM      30.19R
ROSWELL        CLEAR     58  55  90 CALM      30.15S
RUIDOSO        CLEAR     54  36  50 W8        30.36S
SANTA FE       CLEAR     52  30  43 N9        30.30S
TRUTH OR CONSE CLEAR     57  48  72 W6        30.22S
TUCUMCARI      CLEAR     57  47  69 CALM      30.13S
$$

USA.gov is the U.S. government's official web portal to all federal, state and local government web resources and services.